Atlantic, IA

8:22 PM CDT on July 25, 2016 (GMT -0500)
Atlantic Municipal

Weather History for KAIO - November, 2013

Change the Weather History Date:

Saturday, November 16, 2013

  Actual Average Record
Temperature  
Mean Temperature 52 °F -  
Max Temperature 68 °F 47 °F 73 °F (2001)
Min Temperature 37 °F 28 °F 5 °F (2014)
Degree Days  
Heating Degree Days 12    
Growing Degree Days 2 (Base 50)    
Moisture  
Dew Point 44 °F    
Average Humidity 74    
Maximum Humidity 93    
Minimum Humidity 40    
Precipitation  
Precipitation 0.00 in - - ()
Sea Level Pressure  
Sea Level Pressure 29.43 in    
Wind  
Wind Speed 13 mph (SSW)    
Max Wind Speed 29 mph    
Max Gust Speed 43 mph    
Visibility 10 miles    
Events      
Averages and records for this station are not official NWS values.
T = Trace of Precipitation, MM = Missing Value Source: NWS Daily Summary

Daily Weather History Graph

Daily Weather History Graph

Search for Another Location

Airport or City:

Trip Planner

Search our weather history database for the weather conditions in past years. The results will help you decide how hot, cold, wet, or windy it might be!

Date:

Astronomy

Nov. 16, 2013 Rise Set
Actual Time 7:10 AM CST 4:59 PM CST
Civil Twilight 6:40 AM CST 5:29 PM CST
Nautical Twilight 6:06 AM CST 6:02 PM CST
Astronomical Twilight 5:34 AM CST 6:35 PM CST
Moon 4:35 PM CST (11/16) 6:06 AM CST (11/16)
Length of Visible Light 10h 48m
Length of Day
9h 49m
Waxing Gibbous, 99% of the Moon is Illuminated
Nov 16
Waxing Gibbous
Nov 17
Full
Nov 25
Last Quarter
Dec 2
New
Dec 9
First Quarter

Hourly Weather History & Observations

Time (CST) Temp. Windchill Dew Point Humidity Pressure Visibility Wind Dir Wind Speed Gust Speed Precip Events Conditions
12:15 AM 46.4 °F 40.7 °F 41.0 °F 81% 29.64 in 10.0 mi South 12.7 mph 18.4 mph N/A   Mostly Cloudy
12:35 AM 46.4 °F 41.5 °F 41.0 °F 81% 29.64 in 10.0 mi South 10.4 mph 19.6 mph N/A   Scattered Clouds
12:55 AM 46.4 °F 41.1 °F 41.0 °F 81% 29.63 in 10.0 mi South 11.5 mph 18.4 mph N/A   Scattered Clouds
1:15 AM 46.4 °F 41.5 °F 41.0 °F 81% 29.62 in 10.0 mi South 10.4 mph - N/A   Scattered Clouds
1:35 AM 46.4 °F - 42.8 °F 87% 29.61 in 10.0 mi North - - N/A   Clear
1:55 AM 46.4 °F 41.1 °F 42.8 °F 87% 29.60 in 10.0 mi South 11.5 mph 19.6 mph N/A   Clear
2:15 AM 46.4 °F 40.7 °F 42.8 °F 87% 29.59 in 10.0 mi South 12.7 mph 19.6 mph N/A   Clear
2:35 AM 46.4 °F 41.1 °F 42.8 °F 87% 29.59 in 10.0 mi South 11.5 mph 21.9 mph N/A   Partly Cloudy
2:55 AM 46.4 °F 40.7 °F 42.8 °F 87% 29.57 in 10.0 mi South 12.7 mph - N/A   Scattered Clouds
3:15 AM 46.4 °F 41.1 °F 42.8 °F 87% 29.56 in 10.0 mi South 11.5 mph 18.4 mph N/A   Scattered Clouds
3:35 AM 46.4 °F 41.1 °F 42.8 °F 87% 29.55 in 10.0 mi South 11.5 mph 20.7 mph N/A   Mostly Cloudy
3:55 AM 46.4 °F 41.1 °F 44.6 °F 93% 29.54 in 10.0 mi South 11.5 mph 17.3 mph N/A   Mostly Cloudy
4:15 AM 46.4 °F 41.1 °F 44.6 °F 93% 29.53 in 10.0 mi South 11.5 mph 19.6 mph N/A   Overcast
4:35 AM 48.2 °F - 44.6 °F 87% 29.53 in 9.0 mi South 11.5 mph - N/A   Overcast
4:55 AM 48.2 °F - 44.6 °F 87% 29.51 in 9.0 mi South 13.8 mph 19.6 mph N/A   Overcast
5:15 AM 50.0 °F - 46.4 °F 87% 29.50 in 9.0 mi South 13.8 mph 23.0 mph N/A   Overcast
5:35 AM 50.0 °F - 46.4 °F 87% 29.48 in 8.0 mi South 16.1 mph 25.3 mph N/A   Overcast
5:55 AM 51.8 °F - 48.2 °F 88% 29.47 in 8.0 mi South 16.1 mph 24.2 mph N/A   Overcast
6:15 AM 51.8 °F - 48.2 °F 88% 29.45 in 9.0 mi SSE 16.1 mph 26.5 mph N/A   Overcast
6:35 AM 51.8 °F - 48.2 °F 88% 29.44 in 9.0 mi SSE 17.3 mph 25.3 mph N/A   Overcast
6:55 AM 51.8 °F - 48.2 °F 88% 29.43 in 9.0 mi South 16.1 mph 21.9 mph N/A   Overcast
7:15 AM 53.6 °F - 50.0 °F 88% 29.43 in 9.0 mi SSE 12.7 mph 19.6 mph N/A   Overcast
7:35 AM 53.6 °F - 50.0 °F 88% 29.43 in 7.0 mi South 11.5 mph 21.9 mph N/A   Overcast
7:55 AM 53.6 °F - 50.0 °F 88% 29.42 in 8.0 mi South 11.5 mph 20.7 mph N/A   Overcast
8:15 AM 55.4 °F - 51.8 °F 88% 29.41 in 8.0 mi South 15.0 mph 21.9 mph N/A   Overcast
8:35 AM 57.2 °F - 51.8 °F 82% 29.40 in 9.0 mi South 16.1 mph 23.0 mph N/A   Overcast
8:55 AM 57.2 °F - 53.6 °F 88% 29.40 in 9.0 mi South 17.3 mph 29.9 mph N/A   Overcast
9:15 AM 59.0 °F - 53.6 °F 82% 29.38 in 9.0 mi South 20.7 mph 28.8 mph N/A   Overcast
9:35 AM 59.0 °F - 53.6 °F 82% 29.38 in 10.0 mi South 21.9 mph 29.9 mph N/A   Overcast
9:55 AM 60.8 °F - 53.6 °F 77% 29.38 in 10.0 mi South 24.2 mph 33.4 mph N/A   Overcast
10:15 AM 60.8 °F - 53.6 °F 77% 29.37 in 10.0 mi South 24.2 mph 33.4 mph N/A   Mostly Cloudy
10:35 AM 62.6 °F - 53.6 °F 72% 29.36 in 10.0 mi South 28.8 mph 42.6 mph N/A   Mostly Cloudy
10:55 AM 62.6 °F - 53.6 °F 72% 29.36 in 10.0 mi South 24.2 mph 36.8 mph N/A   Overcast
11:15 AM 64.4 °F - 53.6 °F 68% 29.35 in 10.0 mi South 25.3 mph 35.7 mph N/A   Overcast
11:35 AM 62.6 °F - 53.6 °F 72% 29.33 in 10.0 mi South 26.5 mph 38.0 mph N/A   Overcast
11:55 AM 62.6 °F - 53.6 °F 72% 29.31 in 10.0 mi South 26.5 mph 39.1 mph N/A   Mostly Cloudy
12:15 PM 62.6 °F - 53.6 °F 72% 29.32 in 10.0 mi SSW 26.5 mph 35.7 mph N/A   Mostly Cloudy
12:35 PM 62.6 °F - 53.6 °F 72% 29.31 in 9.0 mi SSW 25.3 mph 32.2 mph N/A   Overcast
12:55 PM 64.4 °F - 53.6 °F 68% 29.31 in 10.0 mi SSW 23.0 mph 31.1 mph N/A   Overcast
1:15 PM 64.4 °F - 53.6 °F 68% 29.30 in 10.0 mi SSW 20.7 mph 28.8 mph N/A   Overcast
1:35 PM 64.4 °F - 53.6 °F 68% 29.31 in 10.0 mi SSW 25.3 mph 32.2 mph N/A   Mostly Cloudy
1:55 PM 66.2 °F - 51.8 °F 60% 29.30 in 10.0 mi SSW 26.5 mph - N/A   Scattered Clouds
2:15 PM 68.0 °F - 51.8 °F 56% 29.30 in 10.0 mi SSW 21.9 mph 35.7 mph N/A   Clear
2:35 PM 68.0 °F - 48.2 °F 49% 29.31 in 10.0 mi SW 27.6 mph 38.0 mph N/A   Clear
2:55 PM 68.0 °F - 46.4 °F 46% 29.31 in 10.0 mi SW 25.3 mph 32.2 mph N/A   Clear
3:15 PM 68.0 °F - 42.8 °F 40% 29.32 in - SW 23.0 mph 28.8 mph N/A   Clear
3:35 PM 66.2 °F - 41.0 °F 40% 29.33 in 10.0 mi WSW 19.6 mph 27.6 mph N/A   Clear
3:55 PM 64.4 °F - 41.0 °F 42% 29.33 in 10.0 mi SW 19.6 mph - N/A   Clear
4:15 PM 64.4 °F - 39.2 °F 40% 29.34 in 10.0 mi SW 16.1 mph - N/A   Clear
4:35 PM 60.8 °F - 41.0 °F 48% 29.35 in 10.0 mi SW 9.2 mph - N/A   Clear
4:55 PM 57.2 °F - 39.2 °F 51% 29.36 in 10.0 mi SW 8.1 mph - N/A   Clear
5:15 PM 55.4 °F - 37.4 °F 51% 29.36 in 10.0 mi SW 11.5 mph - N/A   Clear
5:35 PM 53.6 °F - 37.4 °F 54% 29.38 in 10.0 mi WSW 10.4 mph - N/A   Clear
5:55 PM 53.6 °F - 35.6 °F 51% 29.40 in 10.0 mi WSW 8.1 mph - N/A   Clear
6:15 PM 48.2 °F - 35.6 °F 62% 29.41 in 10.0 mi Calm Calm - N/A   Clear
6:35 PM 48.2 °F - 33.8 °F 58% 29.42 in 10.0 mi South 6.9 mph - N/A   Clear
6:55 PM 44.6 °F 42.2 °F 33.8 °F 66% 29.42 in 10.0 mi SSW 4.6 mph - N/A   Clear
7:15 PM 44.6 °F 43.1 °F 33.8 °F 66% 29.42 in 10.0 mi SW 3.5 mph - N/A   Clear
7:35 PM 42.8 °F - 33.8 °F 70% 29.42 in 10.0 mi Calm Calm - N/A   Clear
7:55 PM 42.8 °F - 33.8 °F 70% 29.41 in 10.0 mi Calm Calm - N/A   Clear
8:15 PM 41.0 °F - 33.8 °F 76% 29.42 in 10.0 mi Calm Calm - N/A   Clear
8:35 PM 39.2 °F - 32.0 °F 75% 29.41 in 10.0 mi Calm Calm - N/A   Scattered Clouds
8:55 PM 39.2 °F - 33.8 °F 81% 29.42 in 10.0 mi Calm Calm - N/A   Mostly Cloudy
9:15 PM 37.4 °F 34.9 °F 32.0 °F 81% 29.42 in 10.0 mi North 3.5 mph - N/A   Overcast
9:35 PM 37.4 °F - 32.0 °F 81% 29.42 in 10.0 mi Calm Calm - N/A   Mostly Cloudy
9:55 PM 37.4 °F - 33.8 °F 87% 29.43 in 10.0 mi Calm Calm - N/A   Overcast
10:15 PM 39.2 °F - 35.6 °F 87% 29.43 in 10.0 mi Calm Calm - N/A   Overcast
10:35 PM 39.2 °F 35.9 °F 35.6 °F 87% 29.42 in 10.0 mi North 4.6 mph - N/A   Overcast
10:55 PM 41.0 °F 37.1 °F 35.6 °F 81% 29.41 in 10.0 mi North 5.8 mph - N/A   Overcast
11:15 PM 41.0 °F - 35.6 °F 81% 29.42 in 10.0 mi Calm Calm - N/A   Overcast
11:35 PM 41.0 °F - 35.6 °F 81% 29.41 in 10.0 mi Calm Calm - N/A   Overcast
11:55 PM 42.8 °F 40.1 °F 35.6 °F 76% 29.42 in 10.0 mi North 4.6 mph - N/A   Overcast